Concordia, KS

10:02 PM CST on December 10, 2019 (GMT -0600)
Blosser Municipal

Weather History for KCNK - June, 2019

Change the Weather History Date:

Sunday, June 9, 2019

  Actual Average Record
Temperature  
Mean Temperature 66 °F 71 °F  
Max Temperature 76 °F 83 °F 101 °F (1933)
Min Temperature 56 °F 60 °F 49 °F (1966)
Degree Days  
Heating Degree Days 0 1  
Month to date heating degree days 0 9  
Since 1 June heating degree days 0 9  
Since 1 July heating degree days 5821 5404  
Cooling Degree Days 1 7  
Month to date cooling degree days 95 53  
Year to date cooling degree days 195 142  
Since 1 June cooling degree days 95 53  
Growing Degree Days 14 (Base 50)    
Moisture  
Dew Point 57 °F    
Average Humidity 70    
Maximum Humidity 93    
Minimum Humidity 47    
Precipitation  
Precipitation 0.31 in 0.14 in 5.07 in (1967)
Month to date precipitation 0.44 1.21  
Year to date precipitation 15.03 11.20  
Snow  
Snow 0.00 in 0.00 in T in (1984)
Month to date snowfall 0.0 0.0  
Year to date snowfall 32.3 13.7  
Since 1 July snowfall 48.2 20.2  
Snow Depth 0.00 in    
Sea Level Pressure  
Sea Level Pressure 30.10 in    
Wind  
Wind Speed 15 mph (North)    
Max Wind Speed 24 mph    
Max Gust Speed 36 mph    
Visibility 9 miles    
Events Rain , Thunderstorm    
T = Trace of Precipitation, MM = Missing Value Source: NWS Daily Summary

Daily Weather History Graph

Daily Weather History Graph

Search for Another Location

Airport or City:

Astronomy

Jun. 09, 2019 Rise Set
Actual Time 6:03 AM CDT 8:56 PM CDT
Civil Twilight 5:30 AM CDT 9:29 PM CDT
Nautical Twilight 4:50 AM CDT 10:10 PM CDT
Astronomical Twilight 4:03 AM CDT 10:57 PM CDT
Moon 12:42 PM CDT (6/9) 1:38 AM CDT (6/9)
Length of Visible Light 15h 58m
Length of Day
14h 53m
Waxing Crescent, 44% of the Moon is Illuminated
Jun 9
Waxing Crescent
Jun 10
First Quarter
Jun 17
Full
Jun 25
Last Quarter
Jul 2
New

Hourly Weather History & Observations

Time (CDT) Temp. Dew Point Humidity Pressure Visibility Wind Dir Wind Speed Gust Speed Precip Events Conditions
12:55 AM 75.9 °F 62.1 °F 62% 29.87 in 10.0 mi ENE 9.2 mph - N/A   Scattered Clouds
1:55 AM 73.0 °F 60.1 °F 64% 29.91 in 10.0 mi NE 10.4 mph - N/A   Scattered Clouds
2:42 AM 70.0 °F 62.1 °F 76% 30.00 in 10.0 mi NNW 12.7 mph 17.3 mph 0.00 in Rain , Thunderstorm Light Rain
2:52 AM 69.8 °F 64.4 °F 83% 30.02 in 9.0 mi NNW 20.7 mph 31.1 mph 0.01 in Rain , Thunderstorm Thunderstorms and Rain
2:55 AM 68.0 °F 64.0 °F 87% 29.97 in 8.0 mi North 13.8 mph 31.1 mph 0.02 in Rain , Thunderstorm Thunderstorms and Rain
3:02 AM 68.0 °F 64.0 °F 87% 30.02 in 6.0 mi North 18.4 mph 27.6 mph 0.02 in Rain , Thunderstorm Thunderstorms and Rain
3:09 AM 66.9 °F 64.0 °F 90% 30.02 in 7.0 mi North 17.3 mph 27.6 mph 0.04 in Rain , Thunderstorm Rain
3:41 AM 66.0 °F 63.0 °F 90% 29.98 in 7.0 mi ENE 13.8 mph 24.2 mph 0.13 in Rain Rain
3:51 AM 66.2 °F 62.6 °F 88% 29.97 in 7.0 mi East 12.7 mph - 0.16 in Rain , Thunderstorm Light Rain
3:55 AM 66.0 °F 63.0 °F 90% 29.91 in 8.0 mi East 15.0 mph 21.9 mph 0.16 in Rain , Thunderstorm Light Rain
4:06 AM 66.0 °F 63.0 °F 90% 29.98 in 9.0 mi ESE 9.2 mph 21.9 mph 0.02 in Rain Light Rain
4:55 AM 66.9 °F 64.0 °F 90% 29.87 in 10.0 mi SE 21.9 mph - 0.08 in Rain Light Rain
5:33 AM 66.9 °F 63.0 °F 87% 29.97 in 10.0 mi NE 12.7 mph 23.0 mph 0.03 in Rain Light Rain
5:55 AM 66.9 °F 63.0 °F 87% 29.99 in 10.0 mi NNW 16.1 mph 19.6 mph 0.04 in Rain Light Rain
6:02 AM 66.9 °F 63.0 °F 87% 30.04 in 10.0 mi NNW 16.1 mph - 0.00 in Rain Light Rain
6:26 AM 64.9 °F 62.1 °F 90% 30.04 in 10.0 mi North 19.6 mph 34.5 mph 0.01 in   Overcast
6:33 AM 64.0 °F 60.1 °F 87% 30.06 in 8.0 mi North 20.7 mph 36.8 mph 0.01 in   Overcast
6:46 AM 64.0 °F 61.0 °F 90% 30.08 in 8.0 mi North 17.3 mph 27.6 mph 0.01 in   Overcast
6:55 AM 63.0 °F 60.1 °F 90% 30.05 in 8.0 mi North 19.6 mph 28.8 mph 0.01 in   Overcast
7:39 AM 62.1 °F 57.9 °F 86% 30.10 in 10.0 mi NNW 13.8 mph 26.5 mph N/A   Overcast
7:55 AM 62.1 °F 57.0 °F 84% 30.07 in 10.0 mi North 18.4 mph 32.2 mph N/A   Overcast
8:55 AM 61.0 °F 55.0 °F 81% 30.11 in 10.0 mi North 16.1 mph 28.8 mph N/A   Overcast
9:55 AM 60.1 °F 52.0 °F 75% 30.16 in 10.0 mi North 20.7 mph 32.2 mph N/A   Overcast
10:20 AM 60.1 °F 52.0 °F 75% 30.20 in 10.0 mi North 17.3 mph 29.9 mph N/A   Overcast
10:55 AM 61.0 °F 52.0 °F 72% 30.19 in 10.0 mi North 17.3 mph 25.3 mph N/A   Overcast
11:55 AM 62.1 °F 50.0 °F 65% 30.19 in 10.0 mi North 20.7 mph 32.2 mph N/A   Overcast
12:55 PM 63.0 °F 50.0 °F 63% 30.21 in 10.0 mi North 15.0 mph 25.3 mph N/A   Overcast
1:55 PM 64.0 °F 50.0 °F 60% 30.23 in 10.0 mi NNW 15.0 mph 24.2 mph N/A   Overcast
2:55 PM 66.9 °F 52.0 °F 59% 30.23 in 10.0 mi NNW 20.7 mph 29.9 mph N/A   Overcast
3:55 PM 66.0 °F 51.1 °F 59% 30.25 in 10.0 mi NNW 18.4 mph 27.6 mph N/A   Overcast
4:55 PM 66.9 °F 50.0 °F 54% 30.26 in 10.0 mi North 15.0 mph 27.6 mph N/A   Overcast
6:55 PM 69.1 °F 48.9 °F 49% 30.26 in 10.0 mi North 16.1 mph 26.5 mph N/A   Clear
7:55 PM 68.0 °F 48.0 °F 49% 30.27 in 10.0 mi North 11.5 mph 24.2 mph N/A   Clear
8:55 PM 64.9 °F 46.9 °F 52% 30.29 in 10.0 mi North 9.2 mph - N/A   Clear
9:55 PM 60.1 °F 48.9 °F 67% 30.30 in 10.0 mi NW 5.8 mph - N/A   Clear
10:55 PM 59.0 °F 48.9 °F 69% 30.33 in 10.0 mi NW 6.9 mph - N/A   Clear
11:55 PM 59.0 °F 48.0 °F 67% 30.34 in 10.0 mi NW 4.6 mph - N/A   Clear